CAPE
0 0 0 0 0 0 0 0 0 0 0 0 0 0 0 0 0 0 0 0 0 0 0 0 0 0 0 0 0 0 0 0 0 0 0 317 1028 1312 1408 1161 1257 924 565 628
0 0 0 0 0 0 0 0 0 0 0 0 0 0 0 0 0 0 0 0 0 0 0 0 0 0 0 0 0 0 0 0 0 0 12 147 33 319 947 1487 1489 1048 1035 732
0 0 0 0 0 0 0 0 0 0 0 0 0 0 0 0 0 0 0 0 0 0 0 0 0 0 0 0 0 0 0 0 0 0 0 0 0 0 20 140 633 984 1049 1023
0 0 0 0 0 0 0 0 0 0 0 0 0 0 0 0 0 0 0 0 0 0 0 0 0 0 0 0 0 0 0 0 0 0 0 0 0 0 0 0 0 80 436 665
0 0 0 0 0 0 0 0 0 0 0 0 0 0 0 0 0 0 0 0 0 0 0 0 0 0 0 0 0 0 0 0 0 0 0 0 0 0 0 0 0 0 0 322
0 0 0 0 0 0 0 0 0 0 0 0 0 0 0 0 0 0 0 0 0 0 0 0 0 0 0 0 0 0 0 0 0 0 0 0 0 0 0 0 0 0 0 0
0 0 0 0 0 0 0 0 0 0 0 0 0 0 0 0 0 0 0 0 0 0 0 0 0 0 0 0 0 0 0 0 0 0 0 0 0 0 0 0 0 0 0 0
0 0 0 0 0 0 0 0 0 0 0 0 0 0 0 0 0 0 0 0 0 0 0 0 0 0 0 0 0 0 0 0 0 0 0 0 0 0 0 0 0 1 61 30
0 1 0 0 0 0 0 0 0 0 0 0 0 0 0 0 0 0 0 0 0 0 0 0 0 0 0 0 0 0 0 0 0 0 0 0 0 0 0 0 0 24 15 85
0 0 2 1 0 0 0 0 0 0 0 0 0 0 0 0 0 0 0 0 0 0 0 0 0 0 0 0 0 0 0 0 0 0 0 0 0 0 0 0 0 0 0 77
0 0 0 0 0 0 0 0 0 0 0 0 0 0 0 0 0 0 0 0 0 0 0 0 0 0 0 0 0 0 0 0 0 0 0 0 0 0 0 0 0 0 0 8
0 0 0 0 0 0 0 0 0 0 0 0 0 0 0 0 0 0 0 0 0 0 0 0 0 0 0 0 0 0 0 0 0 0 0 0 0 0 0 0 0 0 0 0
0 0 0 0 0 0 0 0 0 0 0 0 0 0 0 0 0 0 0 0 0 0 0 0 0 0 0 0 0 0 0 0 0 0 0 0 0 0 0 0 0 0 0 0
0 0 0 0 0 1 5 1 0 0 0 0 0 0 0 0 0 0 0 0 0 0 0 0 0 0 0 0 0 0 0 0 0 0 0 0 0 0 0 0 0 0 0 0
0 0 0 0 0 0 0 1 0 0 1 0 0 0 0 0 0 0 0 0 0 0 0 0 0 0 0 0 0 0 0 0 0 0 0 0 0 0 0 1 0 0 0 0
0 0 0 0 0 0 0 0 0 0 4 10 0 0 0 0 0 0 0 0 0 0 0 0 0 0 0 0 0 0 0 0 0 1 4 0 2 0 0 5 7 2 0 0
0 0 0 0 0 1 0 0 0 0 11 13 0 0 0 0 0 0 0 0 0 0 0 0 0 0 0 0 0 0 0 0 1 2 1 4 5 11 12 0 0 0 5 0
0 10 15 13 0 0 0 0 0 0 0 0 0 0 0 0 0 0 0 0 0 0 0 0 0 0 0 0 0 1 1 1 2 3 4 4 2 4 7 4 1 2 0 0
2 18 35 12 0 0 0 6 3 0 0 0 0 0 0 0 0 0 0 0 0 0 0 0 0 0 0 0 1 4 3 3 6 6 6 5 4 4 3 1 0 0 5 0
0 6 4 19 0 0 0 31 0 0 2 0 0 0 0 0 0 0 0 0 0 0 0 0 0 0 1 1 4 5 5 7 6 5 5 5 1 3 2 1 0 0 1 8
1 11 8 14 0 0 5 0 0 2 0 0 0 0 0 0 0 0 0 0 0 0 0 0 0 1 4 5 4 6 5 4 3 5 4 2 1 1 1 1 1 1 10 7
0 0 2 9 23 1 1 45 24 0 0 0 0 0 0 0 0 0 0 0 0 0 0 1 0 4 3 4 5 5 5 3 3 3 3 1 0 1 4 1 2 3 9 11
18 0 0 0 0 0 21 3 0 0 0 0 0 0 0 0 0 0 0 0 0 6 8 1 6 5 4 3 4 7 5 5 6 3 1 1 1 3 22 29 14 2 5 14
32 26 0 1 7 31 5 2 0 0 0 0 0 0 0 0 0 0 0 0 0 6 5 7 6 5 4 5 5 4 4 3 3 3 2 1 6 0 0 15 34 6 12 19
1 31 23 0 5 23 7 0 15 6 0 0 0 0 0 0 0 0 0 2 6 8 8 6 8 8 8 5 4 3 2 2 3 3 1 2 1 1 4 19 34 26 17 11
0 0 0 0 0 3 1 0 3 0 0 0 0 0 0 0 0 0 0 5 8 7 6 6 7 7 7 5 3 2 2 2 2 2 1 3 1 0 1 9 11 3 2 2
CIN
-0 -0 -0 -0 -0 -0 -0 -0 -0 -0 -0 -0 -0 -0 -0 -0 -0 -0 -0 -0 -0 -0 -0 -0 -0 -0 -0 -0 -0 -0 -0 -0 -0 -0 -0 -209 -106 -92 -67 -135 -138 -129 -165 -116
-0 -0 -0 -0 -0 -0 -0 -0 -0 -0 -0 -0 -0 -0 -0 -0 -0 -0 -0 -0 -0 -0 -0 -0 -0 -0 -0 -0 -0 -0 -0 -0 -0 -0 -266 -171 -215 -203 -93 -50 -52 -92 -103 -120
-0 -0 -0 -0 -0 -0 -0 -0 -0 -0 -0 -0 -0 -0 -0 -0 -0 -0 -0 -0 -0 -0 -0 -0 -0 -0 -0 -0 -0 -0 -0 -0 -0 -0 -0 -0 -0 -0 -145 -205 -100 -53 -52 -58
-0 -0 -0 -0 -0 -0 -0 -0 -0 -0 -0 -0 -0 -0 -0 -0 -0 -0 -0 -0 -0 -0 -0 -0 -0 -0 -0 -0 -0 -0 -0 -0 -0 -0 -0 -0 -0 -0 -0 -0 -0 -221 -138 -91
-0 -0 -0 -0 -0 -0 -0 -0 -0 -0 -0 -0 -0 -0 -0 -0 -0 -0 -0 -0 -0 -0 -0 -0 -0 -0 -0 -0 -0 -0 -0 -0 -0 -0 -0 -0 -0 -0 -0 -0 -0 -0 -0 -115
-0 -0 -0 -0 -0 -0 -0 -0 -0 -0 -0 -0 -0 -0 -0 -0 -0 -0 -0 -0 -0 -0 -0 -0 -0 -0 -0 -0 -0 -0 -0 -0 -0 -0 -0 -0 -0 -0 -0 -0 -0 -0 -0 -0
-0 -0 -0 -0 -0 -0 -0 -0 -0 -0 -0 -0 -0 -0 -0 -0 -0 -0 -0 -0 -0 -0 -0 -0 -0 -0 -0 -0 -0 -0 -0 -0 -0 -0 -0 -0 -0 -0 -0 -0 -0 -0 -0 -0
-0 -0 -0 -0 -0 -0 -0 -0 -0 -0 -0 -0 -0 -0 -0 -0 -0 -0 -0 -0 -0 -0 -0 -0 -0 -0 -0 -0 -0 -0 -0 -0 -0 -0 -0 -0 -0 -0 -0 -0 -0 -23 -130 -91
-0 -28 -0 -0 -0 -0 -0 -0 -0 -0 -0 -0 -0 -0 -0 -0 -0 -0 -0 -0 -0 -0 -0 -0 -0 -0 -0 -0 -0 -0 -0 -0 -0 -0 -0 -0 -0 -0 -0 -0 -0 -162 -189 -136
-0 -0 -39 -68 -53 -0 -0 -0 -0 -0 -0 -0 -0 -0 -0 -0 -0 -0 -0 -0 -0 -0 -0 -0 -0 -0 -0 -0 -0 -0 -0 -0 -0 -0 -0 -0 -0 -0 -0 -0 -0 -0 -0 -150
-0 -0 -0 -0 -6 -0 -0 -0 -0 -0 -0 -0 -0 -0 -0 -0 -0 -0 -0 -0 -0 -0 -0 -0 -0 -0 -0 -0 -0 -0 -0 -0 -0 -0 -0 -0 -0 -0 -0 -0 -0 -0 -0 -49
-0 -0 -0 -0 -0 -0 -0 -0 -0 -0 -0 -0 -0 -0 -0 -0 -0 -0 -0 -0 -0 -0 -0 -0 -0 -0 -0 -0 -0 -0 -0 -0 -0 -0 -0 -0 -0 -0 -0 -0 -0 -0 -0 -0
-0 -0 -0 -0 -0 -0 -0 -1 -0 -0 -0 -0 -0 -0 -0 -0 -0 -0 -0 -0 -0 -0 -0 -0 -0 -0 -0 -0 -0 -0 -0 -0 -0 -0 -0 -0 -0 -0 -0 -0 -0 -0 -0 -0
-0 -0 -0 -0 -0 -22 -69 -36 -0 -0 -0 -0 -0 -0 -0 -0 -0 -0 -0 -0 -0 -0 -0 -0 -0 -0 -0 -0 -0 -0 -0 -0 -0 -0 -0 -0 -0 -0 -0 -0 -0 -0 -0 -0
-0 -0 -0 -0 -0 -7 -12 -12 -0 -1 -0 -0 -0 -0 -0 -0 -0 -0 -0 -0 -0 -0 -0 -0 -0 -0 -0 -0 -0 -0 -0 -0 -0 -0 -0 -0 -0 -0 -1 -2 -0 -0 -0 -0
-0 -0 -0 -0 -0 -0 -0 -0 -0 -0 -35 -39 -0 -0 -0 -0 -0 -0 -0 -0 -0 -0 -0 -0 -0 -0 -0 -0 -0 -0 -0 -0 -0 -0 -0 -0 -0 -0 -5 -1 -1 -1 -0 -0
-0 -0 -7 -0 -0 -11 -1 -0 -0 -0 -35 -13 -0 -0 -0 -0 -0 -0 -0 -0 -0 -0 -0 -0 -0 -0 -0 -0 -0 -0 -0 -1 -0 -0 -0 -0 -0 -0 -0 -2 -0 -0 -1 -0
-2 -12 -15 -1 -4 -0 -0 -0 -8 -0 -0 -0 -0 -0 -0 -0 -0 -0 -0 -0 -0 -0 -0 -0 -0 -0 -0 -0 -0 -1 -0 -0 -0 -0 -0 -0 -0 -0 -0 -0 -0 -1 -0 -0
-24 -13 -1 -1 -0 -0 -0 -72 -63 -0 -0 -0 -0 -0 -0 -0 -0 -0 -0 -0 -0 -0 -0 -0 -0 -0 -0 -0 -1 -0 -0 -0 -0 -0 -0 -0 -0 -0 -0 -0 -0 -0 -0 -0
-0 -20 -4 -0 -0 -0 -2 -48 -0 -70 -15 -0 -0 -0 -0 -0 -0 -0 -0 -0 -0 -0 -0 -0 -0 -1 -0 -1 -0 -0 -0 -0 -0 -0 -0 -0 -0 -0 -0 -0 -0 -1 -0 -0
-2 -6 -0 -1 -7 -0 -12 -0 -0 -8 -0 -0 -0 -0 -0 -0 -0 -0 -0 -0 -0 -0 -0 -0 -0 -0 -0 -0 -0 -0 -0 -0 -0 -0 -0 -0 -0 -0 -0 -0 -0 -0 -0 -0
-0 -0 -4 -1 -0 -0 -11 -29 -16 -0 -0 -0 -0 -0 -0 -0 -0 -0 -0 -0 -0 -0 -0 -0 -0 -0 -0 -0 -0 -0 -0 -0 -0 -0 -0 -0 -1 -0 -0 -0 -1 -0 -0 -0
-2 -0 -0 -0 -0 -0 -41 -59 -0 -0 -0 -0 -0 -0 -0 -0 -0 -0 -0 -0 -0 -0 -0 -0 -0 -0 -0 -0 -0 -0 -0 -0 -0 -0 -0 -0 -1 -0 -1 -1 -0 -4 -0 -0
-3 -7 -1 -5 -11 -24 -48 -39 -0 -17 -0 -0 -0 -0 -0 -0 -0 -0 -0 -0 -0 -0 -0 -0 -0 -0 -0 -0 -0 -0 -0 -0 -0 -0 -0 -0 -0 -0 -4 -2 -0 -1 -0 -0
-5 -8 -1 -0 -29 -28 -40 -2 -14 -4 -0 -0 -0 -0 -0 -0 -0 -0 -0 -0 -0 -0 -0 -0 -0 -0 -0 -0 -0 -0 -0 -0 -0 -0 -0 -0 -0 -0 -3 -1 -1 -1 -2 -1
-1 -0 -0 -0 -14 -8 -2 -0 -11 -0 -0 -0 -0 -0 -0 -0 -0 -0 -0 -0 -0 -0 -0 -0 -0 -0 -0 -0 -0 -0 -0 -0 -0 -0 -0 -0 -0 -0 -9 -3 -1 -4 -5 -1
Wind_Speed
4 4 5 8 7 7 3 5 4 4 8 11 15 12 12 6 4 3 4 3 5 8 3 6 9 12 9 9 9 9 9 5 2 4 3 3 3 3 4 4 5 7 7 9
5 7 10 7 7 7 9 5 6 7 5 2 7 10 6 7 6 8 9 9 10 4 7 7 9 9 9 8 8 8 8 8 5 4 2 2 0 2 3 4 5 6 6 9
7 11 7 9 10 10 11 8 5 6 3 5 5 5 2 3 3 4 6 3 5 11 11 7 9 8 8 8 7 8 7 7 5 5 3 3 3 3 3 2 2 5 8 8
7 12 8 11 13 9 1 3 3 7 5 1 4 3 4 4 5 4 3 9 11 9 5 6 8 8 9 7 8 7 6 5 4 4 4 3 2 2 3 3 3 5 7 11
7 3 6 7 5 7 6 8 6 5 5 4 4 5 8 3 4 5 7 6 9 9 9 8 8 8 6 7 7 6 6 5 4 3 4 3 3 4 4 4 7 6 6 9
8 5 4 4 9 5 9 6 9 6 4 3 5 6 6 4 6 4 3 7 8 7 8 7 7 6 6 5 7 7 7 4 4 4 4 5 6 6 4 4 5 5 7 7
4 4 4 2 1 7 7 7 4 5 5 5 2 3 9 2 8 9 9 8 7 7 6 5 5 3 3 4 3 4 4 2 4 5 6 6 7 6 7 7 5 5 6 7
3 4 1 1 3 2 3 6 7 6 2 4 6 4 6 8 7 8 8 8 6 7 6 7 8 8 6 7 6 5 6 7 8 8 9 8 8 5 5 6 5 5 5 6
5 4 2 5 3 3 2 5 6 6 1 2 4 1 7 3 8 6 6 5 7 7 8 9 7 5 5 6 7 7 5 7 8 8 6 7 7 7 7 8 6 5 6 6
4 1 3 4 5 4 5 3 3 3 3 3 4 4 5 4 6 6 6 7 8 9 8 5 4 6 8 7 9 11 10 11 11 13 12 10 11 12 10 7 8 7 7 6
4 4 4 4 1 4 3 1 4 5 6 5 1 5 2 6 7 9 9 10 4 7 7 8 8 7 7 7 8 7 8 8 8 7 8 9 10 11 10 9 9 9 8 8
3 5 3 6 4 4 4 7 6 7 6 5 5 7 1 5 4 8 7 9 7 7 7 8 7 7 7 7 6 5 4 5 4 5 7 10 11 12 11 10 10 9 11 12
4 2 3 8 7 6 2 2 3 3 3 9 8 6 4 8 7 9 7 5 5 6 8 7 6 5 4 3 4 4 5 6 6 8 11 13 14 13 13 13 13 10 11 11
5 3 6 7 4 4 2 2 5 2 1 4 5 4 11 9 6 5 3 5 6 6 5 3 3 2 3 4 5 6 9 12 13 16 15 16 15 14 14 15 13 11 13 13
5 2 2 4 5 3 5 7 5 9 10 5 4 6 10 7 6 3 4 4 6 6 6 5 6 5 5 6 7 10 13 15 14 14 15 14 14 14 14 14 15 14 15 14
5 2 1 4 5 5 9 9 14 15 15 12 11 9 4 3 4 6 5 4 5 5 6 6 5 5 6 9 12 16 16 13 14 14 14 15 16 15 15 13 14 16 16 9
1 3 3 5 4 5 6 15 16 15 16 14 12 3 2 1 5 4 4 4 5 6 5 5 5 7 9 12 14 14 14 13 14 14 15 16 16 15 14 14 15 16 14 11
4 2 3 3 2 4 7 9 7 8 9 10 9 6 4 1 3 6 3 2 3 6 6 6 6 9 12 13 12 13 13 13 14 15 16 15 14 15 14 14 15 14 14 13
7 5 2 3 3 6 9 4 3 4 4 4 7 4 2 4 0 2 9 4 4 4 5 6 7 11 13 13 13 14 15 14 15 15 15 14 14 15 15 15 14 13 12 9
6 6 4 2 2 5 4 4 2 7 3 0 6 4 5 4 4 4 3 3 5 4 5 10 9 12 13 15 13 14 15 14 15 14 15 15 15 16 16 16 14 12 12 13
4 3 8 5 3 7 6 5 3 5 2 4 4 4 3 2 4 4 6 7 3 6 11 13 13 14 14 14 13 14 15 14 14 15 15 16 16 16 16 16 13 11 10 11
6 6 3 3 4 7 3 6 2 3 3 6 4 4 4 3 6 6 7 9 11 14 15 15 15 13 13 13 12 15 15 15 15 15 15 16 17 14 13 16 13 10 9 10
5 6 5 7 7 4 1 4 3 5 4 1 6 4 6 7 6 6 8 10 12 14 14 15 14 15 13 12 12 15 15 15 14 15 16 17 17 15 10 13 12 7 7 7
1 2 3 2 2 4 2 2 4 4 1 5 6 8 8 7 5 7 8 12 13 12 14 13 14 15 16 13 13 13 14 14 14 15 16 15 15 11 11 10 6 5 5 6
4 5 5 3 2 5 6 2 4 4 5 9 10 9 8 6 5 5 10 12 11 12 12 12 13 13 15 15 14 14 13 13 14 14 14 13 6 8 9 8 3 4 4 6
5 6 4 6 5 4 7 9 7 7 7 7 11 7 6 7 5 5 10 10 10 12 12 13 14 14 14 15 15 15 13 13 13 14 12 10 5 5 5 5 4 5 9 8
Wind_Direction
267 101 228 249 218 228 239 253 247 282 267 226 226 217 236 187 194 236 269 247 226 220 313 41 78 100 93 65 68 73 106 128 89 47 41 21 1 330 313 262 250 235 218 236
346 248 227 252 288 282 279 265 272 264 267 154 172 205 209 173 197 186 209 227 229 87 82 51 85 90 92 107 108 94 92 91 85 97 118 102 83 306 271 293 279 270 242 231
193 250 250 242 260 265 273 190 223 206 346 6 69 4 171 283 348 295 204 132 87 139 131 121 90 95 93 89 94 88 81 78 73 80 47 22 21 12 5 300 272 274 273 251
236 266 261 256 238 206 188 254 68 52 79 211 60 262 304 268 294 9 82 110 117 118 103 100 100 97 109 112 115 103 90 73 78 78 86 110 170 221 235 249 257 277 277 281
267 286 339 326 250 178 213 121 114 120 114 96 332 96 266 316 28 89 107 119 131 130 127 121 124 123 129 126 127 127 121 124 165 159 154 153 211 238 255 277 290 285 272 267
244 254 254 225 314 258 152 73 33 44 81 57 219 133 273 236 167 173 144 136 132 123 123 128 139 128 138 150 152 158 151 168 176 180 191 210 230 254 277 275 285 283 296 289
330 277 269 269 347 16 73 69 5 357 17 228 103 68 234 300 159 149 153 142 138 134 127 126 125 129 159 185 199 190 174 235 256 237 231 235 235 238 256 266 255 279 288 296
198 318 10 226 117 155 49 137 148 176 179 275 318 237 283 111 107 119 135 152 156 162 182 191 199 201 215 220 221 215 219 231 231 233 237 235 235 229 232 230 245 254 244 271
172 232 25 49 42 103 321 62 173 109 81 80 247 273 35 91 117 129 163 177 201 211 216 219 231 232 241 218 230 221 252 280 297 287 271 255 246 242 239 246 238 241 258 263
212 270 8 14 46 30 100 168 63 31 139 238 273 241 172 165 171 189 206 217 238 238 244 280 341 18 28 38 49 51 42 37 23 19 19 5 347 338 317 294 260 250 256 259
124 110 279 46 91 189 2 19 113 114 130 183 217 272 179 175 199 206 230 228 272 34 76 72 61 52 61 51 44 40 31 19 7 1 346 341 332 332 333 327 314 298 282 265
320 131 168 240 247 228 220 208 164 136 211 216 161 256 183 134 271 251 324 95 80 74 75 66 57 53 41 35 27 20 357 345 319 307 316 315 309 304 302 302 304 306 310 299
177 24 53 343 351 8 33 272 107 124 98 209 204 255 299 315 336 65 82 56 64 76 77 69 50 47 45 7 333 312 298 290 303 311 308 304 297 295 295 292 290 289 299 305
73 137 158 184 186 176 283 298 348 94 124 243 214 256 274 259 118 103 51 67 72 74 66 80 50 2 302 283 291 309 317 318 311 308 302 300 295 292 291 291 291 289 291 291
83 173 201 248 258 212 225 256 272 278 238 222 249 228 262 121 135 117 96 65 50 25 15 5 351 334 333 347 336 315 303 303 311 308 301 294 293 287 285 288 288 284 280 276
352 217 89 280 287 285 286 235 230 231 234 251 266 285 66 105 97 89 63 42 19 347 340 330 327 349 335 314 311 311 313 313 310 302 300 301 295 292 284 285 290 288 282 271
54 132 91 256 326 297 287 248 244 233 226 226 234 131 200 90 115 106 61 18 343 333 313 311 338 320 307 313 315 309 306 308 304 301 302 299 298 298 294 290 288 285 283 284
155 137 110 263 349 223 238 295 265 129 63 99 118 143 122 304 132 171 175 34 16 320 334 332 307 309 313 314 308 304 307 305 308 301 294 292 293 295 296 291 290 287 277 277
182 152 139 231 203 297 305 10 44 48 60 83 109 79 55 334 38 217 27 59 339 323 322 295 294 311 311 311 310 310 310 308 298 290 291 293 292 291 289 283 281 287 296 291
148 140 151 178 212 226 253 118 141 121 177 267 107 79 46 32 11 249 306 311 355 332 291 310 314 317 316 313 313 308 303 296 295 300 300 298 294 283 278 274 274 276 283 279
133 129 205 201 258 280 284 124 28 120 175 118 116 125 131 116 204 292 345 4 345 318 329 328 325 318 315 314 310 303 299 296 298 298 294 287 284 280 276 276 265 263 269 282
155 161 174 166 228 246 308 94 62 274 84 137 109 91 76 33 20 6 2 339 341 334 334 329 320 317 318 313 311 300 297 300 299 294 291 288 285 281 277 270 260 245 256 266
204 174 180 185 213 219 18 124 105 54 115 70 93 64 77 62 36 2 342 341 336 331 326 325 318 316 318 316 309 299 300 304 304 304 297 292 292 295 295 294 259 230 241 252
198 233 201 89 45 95 112 4 108 68 3 120 93 93 79 82 32 358 345 343 335 333 326 320 320 321 318 315 309 302 306 308 304 298 296 298 303 304 308 305 261 227 239 250
233 169 202 233 127 92 70 63 219 170 138 89 82 85 91 83 34 353 348 344 335 325 324 325 322 320 317 319 316 314 311 311 308 305 299 301 300 305 314 318 286 243 240 247
190 186 169 227 184 171 190 206 220 130 105 103 104 85 84 79 39 350 357 342 329 329 335 337 332 324 323 322 318 316 318 319 310 302 301 304 294 312 313 321 321 261 271 290